Location: Ar Ranvel
(48.3000°N, 4.8833°W)
Time: 21:46:38
(UTC+00:00)

Meteor 2-10 Rocket - Pass Details

Date: 28 October 2021
Orbit: 733 x 885 km, 81.2° (Epoch: 30 November)

Event Time Altitude Azimuth Distance (km) Brightness Sun altitude
Rises 17:32:52 0° 160° (SSE) 3,367 6.8 -5.0°
Reaches altitude 10° 17:35:32 10° 150° (SSE) 2,413 5.9 -5.4°
Maximum altitude 17:40:13 30° 90° (E) 1,393 4.3 -6.2°
Drops below altitude 10° 17:44:47 10° 31° (NNE) 2,341 5.6 -6.9°
Sets 17:47:20 0° 21° (NNE) 3,250 6.4 -7.3°
